Location: Aurora Center
(43.5271°N, 98.5894°W)
Time: 01:22:52
(UTC-05:00)

BlueWalker 3 - Pass Details

Date: 18 June 2024
Orbit: 480 x 492 km, 53.2° (Epoch: 15 July)

Event Time Altitude Azimuth Distance (km) Brightness Sun altitude
Rises 01:06:08 0° 276° (W) 2,535 5.7 -22.7°
Reaches altitude 10° 01:08:38 10° 291° (WNW) 1,656 4.9 -22.8°
Maximum altitude 01:11:39 23° 345° (NNW) 1,075 4.4 -22.8°
Drops below altitude 10° 01:14:40 10° 39° (NE) 1,658 5.1 -22.9°
Sets 01:17:10 0° 55° (NE) 2,539 5.9 -22.9°
